Regional Weather Roundup
Issued by NWS Upton, NY

Current Version | Previous Version | Text Only | Print | Product List | Glossary On
Versions: 1 2 3 4 5 6 7 8 9 10 11 12 13 14 15 16 17 18 19 20 21 22 23 24 25 26 27 28 29 30 31 32 33 34 35 36 37 38 39 40 41 42 43 44 45 46 47 48 49 50
000
ASUS41 KOKX 240309
RWROKX

REGIONAL WEATHER ROUNDUP
NATIONAL WEATHER SERVICE NEW YORK NY
1100 PM EDT TUE MAY 23 2017

NOTE: "FAIR" INDICATES FEW OR NO CLOUDS BELOW 12,000 FEET WITH NO
SIGNIFICANT WEATHER AND/OR OBSTRUCTIONS TO VISIBILITY.

NYZ071-072-176-178-NJZ106-104-240400-
NEW YORK CITY METRO AREA

CITY           SKY/WX    TMP DP  RH WIND       PRES   REMARKS
Central Park   CLOUDY    62  48  60 CALM      29.84F
Wall St Helipt CLOUDY    62  47  57 CALM      29.83F
Bronx Bot Gard   N/A     59  48  67 E2        29.82F
LaGuardia APRT CLOUDY    63  47  55 S6        29.82F
Kennedy INTL   CLOUDY    60  53  77 SE3       29.83F
Breezy Point     N/A     57 N/A N/A CALM        N/A
Newark/Liberty CLOUDY    62  51  67 CALM      29.82F
Teterboro      CLOUDY    62  49  62 S6        29.81F
$$

NYZ177-179-078>081-240400-
LONG ISLAND NEW YORK

CITY           SKY/WX    TMP DP  RH WIND       PRES   REMARKS
Jones Beach      N/A     57 N/A N/A S1          N/A
Matinecock PT    N/A     63 N/A N/A S3          N/A
Farmingdale    CLOUDY    59  50  72 CALM      29.83F
MacArthur/ISP  CLOUDY    59  50  72 W3        29.83F
Shirley          N/A     58  53  84 CALM      29.84F
Mt Sinai Harb    N/A    N/A N/A N/A S5          N/A
Westhampton    CLOUDY    55  51  86 CALM      29.85F
East Hampton     N/A     55  51  86 CALM      29.83F
Montauk          N/A     59  53  80 CALM      29.85F
$$

NYZ052-065-067-240400-
HUDSON VALLEY

CITY           SKY/WX    TMP DP  RH WIND       PRES   REMARKS
White Plains   CLOUDY    58  52  80 CALM      29.82F
Larchmont Harb   N/A     59 N/A N/A S5          N/A
Croton O-T Hud   N/A     59 N/A N/A MISG        N/A
Newburgh       MOCLDY    55  54  94 CALM      29.84F
Montgomery     CLOUDY    55  52  89 CALM      29.82F
Poughkeepsie   CLOUDY    55  52  89 CALM      29.82S
Albany         CLOUDY    58  49  72 S3        29.82S
$$

NJZ001-105-106-008-010-013-015-019>022-104-240400-
NEW JERSEY

CITY           SKY/WX    TMP DP  RH WIND       PRES   REMARKS
Newark/Liberty CLOUDY    62  51  67 CALM      29.82F
Teterboro      CLOUDY    62  49  62 S6        29.81F
Caldwell       CLOUDY    63  51  65 CALM      29.82F
Somerville     CLOUDY    58  56  93 CALM      29.80F
Linden           N/A     62  50  65 CALM      29.81F
Perth Amboy      N/A     61 N/A N/A S2          N/A
Sussex         CLOUDY    54  52  93 CALM      29.84S
Andover          N/A     55  53  93 CALM      29.82F
Trenton        CLOUDY    60  51  72 CALM      29.80F
Millville      CLOUDY    58  53  84 NE6       29.77F
Atlantic City  CLOUDY    59  50  72 E8        29.78F
Wrightstown    CLEAR     57  52  84 NE3       29.78F
Toms River     CLOUDY    57  51  80 NE3       29.81F
Belmar         CLOUDY    58  51  78 E3        29.81F
$$

PAZ047>061-062-071-240400-
EASTERN PENNSYLVANIA

CITY           SKY/WX    TMP DP  RH WIND       PRES   REMARKS
Philadelphia   CLOUDY    62  50  64 E7        29.79F
Allentown      CLOUDY    59  52  77 CALM      29.81F
Scranton       MOCLDY    56  48  74 E3        29.82F
$$

CTZ002-004>006-009-010-012-RIZ004-006-007-MAZ004-011-015-240400-
SOUTHERN NEW ENGLAND
 IN CT

CITY           SKY/WX    TMP DP  RH WIND       PRES   REMARKS
Bradley INTL   CLOUDY    58  54  86 CALM      29.82F
Hartford       CLOUDY    59  55  87 CALM      29.82S
Danbury        CLOUDY    55  53  93 CALM      29.84F
Wtrbury/Oxford   N/A     55  48  76 CALM      29.85S
Bridgeport     CLOUDY    62  52  69 SW5       29.83S
Meriden        CLOUDY    57  54  89 CALM      29.84R
New Haven      CLOUDY    58  53  84 S3        29.84S
Chester          N/A     59  52  77 CALM      29.84S
Groton         CLOUDY    56  51  84 S7        29.84S
Wilimantic     CLOUDY    59  55  87 CALM      29.84S

 IN RI

CITY           SKY/WX    TMP DP  RH WIND       PRES   REMARKS
Providence     CLOUDY    59  55  87 S5        29.84S
Block Island   MOCLDY    57  52  83 SW7       29.85F
Westerly       CLOUDY    58  53  84 S3        29.85S
 IN MA

CITY           SKY/WX    TMP DP  RH WIND       PRES   REMARKS
Boston         MOCLDY    59  53  80 S7        29.83S
Worcester      CLOUDY    58  46  64 SW6       29.84F
Westfield      CLOUDY    55  55 100 CALM      29.82F
Provincetown   PTCLDY    54  52  93 S7        29.85S
Nantucket      CLOUDY    52  50  93 CALM      29.85F
$$

ANZ330-335-338-340-345-350-353-355-240400-
COASTAL MARINE OBSERVATIONS


STATION/POSITION TIME  SKY/WX   TEMP    WIND        PRES    VSBY  WAVE
                                AIR SEA DIR/SP/G                  HT/PER
                 (UTC)          (F)     (DEG/KT/KT) (MB)    (MI)  (FT/S)
NY HARB ENTRANCE 0150            59 59  190/  4/  6 1010.6          3/ 7
20 S FIRE ISLAND 0250            56 56   CALM  /  2 1009.6          3/ 8
GREAT SOUTH BAY  0215            60 64  210/  4/  6   N/A
23 SSW MONTAUK P 0150            56 56              1010.9          3/ 7
15 E BARNEGAT LI 0230               58                N/A           3/ 7
HUDSON CANYON    0150            55 54   80/  6/  8 1010.7          4/ 7
KINGS POINT      0242            61 57  190/  5/  5 1009.9
EXECUTION ROCKS  0245            61                   N/A
CENTRAL LI SOUND NOT AVBL
EASTERN LI SOUND NOT AVBL
ROBBINS REEF     0242            61     160/  5/  6 1010.5
$$


>>>>>>>>>>>>>>>>>>>>>>>>>>>> KEY <<<<<<<<<<<<<<<<<<<<<<<<<<<
>                                                          <
>     SKY/WX - Sky Condition/Present Weather               <
>     TMP    - Temperature in Fahrenheit                   <
>     DP     - Dew Point in Fahrenheit                     <
>     RH     - Relative Humidity in Percent                <
>     WIND   - Direction (from) and Speed in MPH           <
>     PRES   - Mean Sea Level Pressure (inches of Hg)      <
>     WCI    - Wind Chill Index                            <
>     VSB    - VISIBILITY IN MILES                         <
>     HX     - HEAT INDEX                                  <
>     TC     - TEMPERATURE IN CELSIUS                      <
>     VRB    - VARIABLE WIND DIRECTION                     <
>                                                          <
>>>>>>>>>>>>>>>>>>>>>>>>>>>> KEY <<<<<<<<<<<<<<<<<<<<<<<<<<<



USA.gov is the U.S. government's official web portal to all federal, state and local government web resources and services.